Temp
54 55 55 56 56 56 56 56 56 56 56 56 56 57 57 56 55 57 65 65 62 64 68 70 71 65 68 70 65 69 73 72 76 66 65 70 63 66 64 67 66 66 64 65 66 62 59 69 69 65 66 72 74 74
54 55 55 55 56 56 55 55 55 55 55 56 56 57 56 56 55 53 63 69 69 60 67 72 71 72 71 71 68 69 66 67 72 72 71 71 67 66 64 60 67 60 66 66 64 64 67 71 67 69 70 71 72 72
54 55 55 55 55 55 55 55 55 55 55 55 56 56 56 55 55 54 61 63 64 62 68 72 73 75 78 75 78 65 72 69 71 71 75 74 64 71 62 66 67 67 69 69 65 66 68 70 71 72 71 70 73 74
52 53 55 55 55 55 55 55 55 55 55 55 55 56 55 55 54 54 58 64 62 63 60 71 79 74 79 79 76 79 74 73 71 74 73 73 70 72 71 68 71 73 71 66 66 69 70 70 71 71 72 73 73 75
52 53 53 55 55 55 55 55 55 55 55 55 55 54 54 54 53 56 61 60 61 59 59 66 76 78 79 77 76 77 74 71 75 72 70 68 73 71 73 73 70 75 68 68 65 70 70 68 71 72 72 72 74 73
52 52 53 53 55 55 55 55 55 55 55 55 54 54 53 53 53 56 57 62 59 63 58 61 76 72 75 76 75 73 76 74 74 74 75 73 67 67 68 67 67 72 74 74 67 71 69 69 70 72 72 72 72 74
52 52 52 53 53 55 55 54 54 54 54 54 53 53 53 52 52 58 54 56 55 61 58 60 68 74 74 74 77 76 74 76 74 76 73 75 74 70 69 63 66 71 73 71 73 73 70 71 71 73 72 73 72 74
51 51 52 52 53 53 54 54 54 53 53 53 52 52 53 52 52 57 64 55 58 58 62 57 65 68 74 71 69 76 73 74 73 74 73 72 72 73 66 66 68 69 71 73 72 74 74 74 74 75 75 74 73 72
51 51 52 52 52 53 54 54 53 53 53 52 52 52 52 50 45 60 56 57 60 59 56 61 61 61 73 73 74 71 73 67 73 70 72 71 69 64 64 65 67 67 70 71 73 75 75 73 74 74 74 73 73 72
51 51 51 52 52 53 53 54 53 52 51 52 52 48 47 54 58 57 58 56 57 59 58 56 70 64 70 69 68 69 70 69 62 69 73 67 66 66 68 68 68 68 70 72 70 70 72 72 73 74 74 75 75 74
51 51 51 52 52 53 53 53 51 51 51 50 47 47 56 57 57 59 52 52 57 54 58 62 67 67 73 65 66 70 67 68 60 64 65 64 64 66 68 68 70 71 73 74 74 75 77 76 76 74 72 73 74 73
51 51 51 52 52 52 52 51 52 52 55 53 53 59 62 57 52 49 51 56 55 55 61 59 64 70 70 73 69 67 65 66 57 69 64 60 64 67 68 69 70 71 74 73 75 74 75 75 76 75 73 72 71 72
51 51 51 51 52 52 52 52 52 53 55 57 50 49 53 52 39 43 44 52 55 61 60 60 60 67 66 70 68 66 60 62 70 62 61 65 64 66 67 70 70 73 73 72 72 74 75 73 75 75 73 73 73 72
50 51 51 51 52 52 52 52 52 52 49 46 43 36 45 44 50 53 56 59 65 63 59 61 62 64 68 63 68 59 64 66 58 55 57 65 64 66 67 70 70 69 71 71 71 72 72 71 71 71 69 73 72 69
50 50 51 51 52 52 52 52 52 52 48 44 45 41 49 58 62 63 65 62 63 64 63 61 62 66 64 62 66 62 56 54 59 60 65 67 64 65 66 67 68 68 69 70 70 71 69 70 71 68 70 71 70 68
51 50 52 52 52 52 51 51 50 50 48 46 49 51 59 56 57 61 59 58 65 64 66 66 62 61 61 65 58 57 57 54 61 67 68 66 64 65 65 67 66 67 67 64 68 69 68 68 69 68 69 69 68 67
50 52 52 52 52 50 51 47 46 44 44 45 51 59 56 56 55 58 61 63 65 63 60 64 58 57 64 60 58 65 62 65 68 68 68 66 64 64 66 66 67 68 68 67 67 67 68 68 67 66 63 64 66 66
46 51 52 51 50 49 47 47 44 42 41 50 50 56 57 57 57 60 62 65 64 65 65 63 66 59 58 55 60 64 66 68 70 68 68 66 65 66 66 66 67 68 67 67 67 68 67 66 65 64 61 61 62 64
54 55 52 51 51 47 43 43 44 40 46 54 53 55 55 57 61 62 64 65 69 72 68 67 60 60 62 67 65 65 65 67 65 66 66 66 66 66 66 67 66 67 66 66 65 63 67 67 69 66 66 66 61 66
52 51 52 52 54 46 43 42 46 43 47 49 50 50 53 56 59 64 66 67 68 69 65 63 63 64 66 66 69 68 68 69 68 66 66 67 68 66 66 65 69 67 67 66 66 52 64 68 70 66 68 65 66 67
50 51 52 51 49 48 43 45 44 46 48 46 48 49 52 56 63 65 65 70 67 66 63 66 65 64 66 67 69 69 66 70 71 71 70 67 69 69 68 68 67 69 69 65 60 62 59 65 66 67 69 70 68 68
47 51 48 48 43 44 44 49 46 48 46 48 48 52 56 59 60 60 69 64 62 64 67 66 66 66 64 64 65 67 66 66 66 65 51 57 67 67 68 69 68 67 68 67 64 62 64 66 68 71 72 71 64 73
50 49 46 46 44 45 43 49 46 50 49 55 61 57 57 58 62 69 61 64 64 65 67 66 65 67 66 65 65 65 66 66 69 70 69 69 71 70 70 69 69 66 64 67 66 64 62 55 62 71 72 72 73 72
50 46 44 45 45 41 47 46 54 57 57 57 55 53 55 59 67 62 57 62 64 66 64 63 68 66 66 64 66 68 69 69 68 69 69 68 67 66 64 68 69 68 70 70 67 64 64 70 62 70 71 71 68 66
43 43 44 37 48 46 48 51 53 54 51 55 54 54 57 65 57 55 54 60 60 62 63 65 70 70 69 69 71 70 66 69 69 68 68 69 67 69 66 69 67 74 74 68 65 66 69 71 71 71 72 72 70 70
39 49 43 50 50 50 51 50 52 52 54 52 53 58 62 59 53 49 58 61 62 64 66 68 67 67 67 70 69 70 69 73 71 68 69 72 70 68 67 66 66 68 74 73 70 69 70 71 72 71 71 69 53 68
42 48 52 56 56 55 52 55 59 57 54 53 57 57 58 50 50 57 63 66 64 67 70 71 70 70 69 70 72 73 73 73 68 71 74 75 74 74 73 70 66 70 75 75 74 73 72 71 71 71 69 71 72 73
50 54 49 55 56 61 55 55 54 53 56 61 62 53 52 53 54 61 63 68 71 72 72 74 72 72 71 72 75 74 72 73 72 72 75 74 74 76 75 77 76 51 72 77 76 76 75 74 72 72 71 72 74 75
51 57 61 55 57 56 56 56 56 59 62 64 58 56 58 64 66 65 69 72 74 71 69 70 73 74 74 74 73 73 73 73 66 62 64 65 63 66 77 77 76 77 77 76 54 61 72 73 74 75 75 75 75 76
53 60 56 54 53 52 56 60 58 63 64 64 66 64 65 66 67 71 68 66 66 67 69 69 69 68 67 68 64 68 74 72 62 65 62 64 66 64 63 75 75 76 77 76 76 77 47 59 65 70 68 71 73 74
61 62 56 56 54 58 61 66 66 67 67 65 67 64 61 60 62 63 64 65 67 68 66 65 68 70 69 67 67 64 59 62 68 71 70 71 68 66 66 70 74 74 72 73 73 73 73 72 73 72 71 71 72 68
58 55 56 52 55 61 62 58 59 58 58 57 57 59 56 60 55 54 57 57 61 60 53 62 65 66 70 67 67 71 51 70 66 66 68 66 64 68 73 68 69 70 71 72 73 74 73 72 71 71 70 70 70 70
57 60 60 57 53 50 52 51 52 55 58 56 57 61 61 57 52 65 74 75 70 66 65 68 73 75 72 71 73 72 59 74 66 51 49 46 43 49 61 67 66 66 66 68 71 71 71 71 71 70 70 69 69 70
MSLP
1016.76 1016.57 1016.39 1016.23 1016.07 1015.93 1016.30 1016.88 1017.41 1017.89 1018.59 1019.00 1019.31 1019.65 1019.83 1019.92 1019.95 1019.61 1018.08 1018.30 1017.50 1014.89 1012.70 1012.15 1011.58 1011.04 1010.35 1009.36 1008.57 1007.96 1006.90 1006.23 1005.08 1004.91 1004.58 1003.81 1004.46 1004.70 1004.51 1004.53 1004.33 1004.07 1003.83 1003.66 1004.04 1004.23 1005.15 1006.47 1006.58 1006.76 1007.71 1007.53 1007.52 1007.67
1016.56 1016.23 1016.14 1015.94 1015.78 1015.78 1016.06 1016.49 1017.11 1017.69 1018.30 1018.85 1019.11 1019.46 1019.71 1019.76 1019.87 1019.81 1018.12 1017.99 1017.79 1016.62 1013.21 1012.54 1011.98 1011.64 1011.27 1010.70 1010.32 1009.32 1008.68 1008.07 1006.89 1005.53 1005.27 1005.02 1004.63 1005.15 1004.87 1004.71 1005.59 1005.47 1005.45 1004.66 1005.88 1005.90 1007.23 1007.58 1007.97 1008.59 1008.68 1008.39 1008.51 1008.56
1016.32 1016.16 1015.86 1015.73 1015.59 1015.60 1015.89 1016.28 1016.91 1017.47 1018.00 1018.54 1018.94 1019.30 1019.51 1019.70 1019.73 1019.74 1018.66 1018.17 1017.37 1015.52 1012.68 1011.36 1010.03 1010.37 1010.59 1010.64 1010.62 1010.00 1008.68 1008.76 1008.07 1008.00 1006.10 1005.42 1005.33 1005.46 1004.92 1004.77 1005.24 1006.07 1006.40 1005.75 1006.47 1007.36 1007.79 1008.23 1008.73 1009.00 1009.21 1009.27 1009.25 1009.28
1016.22 1016.04 1015.71 1015.55 1015.47 1015.45 1015.73 1016.10 1016.61 1017.18 1017.75 1018.23 1018.69 1019.12 1019.34 1019.56 1019.67 1019.70 1018.84 1018.22 1017.79 1016.05 1013.25 1010.02 1010.04 1009.86 1009.93 1010.00 1010.20 1009.80 1009.60 1009.51 1008.99 1008.07 1006.77 1005.91 1005.41 1006.22 1005.32 1005.50 1005.19 1006.02 1006.50 1006.63 1007.11 1007.69 1008.27 1008.76 1009.12 1009.42 1009.51 1009.65 1009.56 1009.63
1016.02 1015.82 1015.68 1015.45 1015.35 1015.29 1015.46 1015.80 1016.32 1016.83 1017.44 1017.96 1018.46 1018.93 1019.27 1019.41 1019.43 1019.25 1018.49 1018.36 1018.23 1017.43 1013.97 1011.10 1009.77 1009.37 1009.44 1009.60 1009.54 1009.50 1009.43 1009.18 1008.10 1007.39 1006.95 1006.66 1006.87 1006.81 1006.49 1006.02 1005.78 1006.46 1006.95 1006.71 1007.02 1008.18 1008.32 1009.19 1009.66 1009.87 1009.77 1009.83 1009.89 1009.82
1015.61 1015.68 1015.66 1015.49 1015.25 1015.18 1015.20 1015.45 1015.92 1016.48 1017.07 1017.69 1018.28 1018.78 1019.16 1019.32 1019.22 1018.80 1017.78 1018.11 1018.52 1017.77 1015.73 1011.50 1009.44 1009.25 1009.27 1009.26 1009.24 1009.24 1009.07 1008.85 1008.25 1007.27 1006.94 1007.37 1008.14 1008.05 1006.37 1005.86 1007.60 1007.70 1007.87 1007.83 1008.49 1008.99 1009.14 1009.76 1010.05 1010.15 1010.10 1010.23 1010.25 1009.88
1015.34 1015.36 1015.41 1015.28 1015.25 1015.13 1015.15 1015.20 1015.57 1016.08 1016.75 1017.45 1018.18 1018.81 1019.18 1019.29 1019.23 1018.47 1018.47 1018.46 1018.65 1018.24 1015.96 1012.18 1008.93 1008.91 1009.18 1009.06 1008.87 1008.72 1009.03 1008.62 1008.26 1007.43 1007.29 1007.27 1007.60 1007.99 1007.21 1007.03 1008.35 1008.39 1008.45 1008.80 1009.01 1009.16 1009.36 1009.59 1009.77 1010.05 1010.16 1010.22 1010.16 1010.14
1015.15 1015.12 1015.16 1015.05 1015.07 1014.99 1014.99 1015.04 1015.27 1015.81 1016.54 1017.40 1018.20 1018.77 1019.10 1019.33 1019.31 1018.45 1017.59 1018.11 1018.39 1017.55 1015.74 1012.60 1009.11 1008.61 1008.91 1008.11 1008.21 1008.82 1008.16 1008.24 1008.23 1007.70 1007.82 1007.24 1007.80 1007.68 1007.28 1008.46 1008.83 1008.99 1008.93 1008.94 1009.21 1009.30 1009.34 1009.61 1009.76 1009.80 1010.12 1010.11 1010.04 1010.10
1014.86 1014.87 1014.97 1014.85 1014.83 1014.81 1014.66 1014.80 1015.09 1015.71 1016.58 1017.57 1018.36 1018.85 1019.11 1019.14 1018.84 1017.65 1017.86 1017.69 1017.91 1017.45 1014.75 1011.88 1009.00 1007.61 1008.42 1008.01 1008.30 1008.54 1008.35 1007.52 1008.12 1007.31 1007.32 1007.76 1007.17 1007.46 1008.40 1008.91 1009.10 1009.41 1009.17 1009.07 1009.32 1009.19 1009.22 1009.36 1009.45 1009.68 1009.90 1010.01 1010.01 1010.35
1014.50 1014.51 1014.59 1014.68 1014.70 1014.43 1014.29 1014.65 1015.15 1015.94 1016.88 1017.85 1018.48 1018.57 1018.03 1017.69 1017.74 1017.95 1017.52 1017.11 1016.79 1015.83 1014.84 1011.83 1009.21 1007.86 1007.98 1007.75 1007.77 1007.82 1007.85 1007.15 1007.17 1007.37 1007.86 1007.49 1007.29 1008.75 1009.02 1009.48 1009.73 1009.72 1009.61 1009.47 1009.06 1008.88 1008.97 1009.01 1009.35 1009.50 1009.67 1010.01 1010.29 1010.48
1014.17 1014.28 1014.31 1014.25 1014.45 1014.28 1014.20 1014.61 1015.44 1016.40 1017.33 1017.71 1017.77 1017.63 1017.46 1017.52 1017.39 1016.43 1015.83 1015.20 1014.02 1013.10 1012.26 1010.48 1008.91 1007.50 1008.04 1007.29 1007.17 1007.83 1007.19 1007.20 1006.81 1007.14 1007.20 1006.94 1007.11 1008.55 1009.52 1009.74 1009.87 1009.67 1009.52 1009.43 1009.44 1009.29 1009.18 1009.28 1009.34 1009.66 1010.11 1010.33 1010.77 1010.96
1013.85 1013.88 1013.98 1014.11 1014.10 1014.13 1014.38 1014.93 1015.55 1015.98 1016.33 1016.57 1016.76 1016.91 1016.67 1016.29 1016.23 1015.37 1013.82 1012.65 1011.80 1010.31 1009.74 1009.24 1008.56 1007.90 1007.94 1007.89 1007.04 1007.79 1006.97 1007.27 1006.57 1007.45 1007.19 1006.72 1007.93 1009.01 1009.48 1009.72 1009.89 1009.76 1009.59 1009.55 1009.55 1009.43 1009.44 1009.64 1009.77 1009.94 1010.34 1010.78 1011.05 1011.36
1013.41 1013.57 1013.68 1013.83 1013.97 1014.16 1014.39 1014.89 1015.32 1015.56 1016.14 1016.48 1016.78 1016.28 1015.21 1015.11 1014.52 1013.01 1011.02 1009.72 1008.89 1008.74 1008.93 1008.84 1008.45 1007.88 1008.43 1007.99 1007.37 1007.26 1006.96 1006.60 1007.25 1007.05 1006.61 1006.81 1008.55 1009.40 1009.85 1009.97 1010.04 1010.05 1009.99 1009.99 1010.01 1010.00 1009.91 1010.16 1010.35 1010.36 1010.58 1011.00 1011.23 1011.44
1012.98 1013.25 1013.40 1013.49 1013.72 1014.03 1014.33 1014.90 1015.37 1015.94 1016.23 1016.45 1016.09 1015.43 1014.03 1012.71 1011.40 1009.84 1008.93 1008.10 1007.93 1008.16 1008.33 1008.21 1007.94 1007.49 1007.59 1007.50 1007.10 1006.79 1007.03 1007.07 1006.71 1006.44 1006.65 1007.66 1009.02 1009.67 1010.14 1010.24 1010.14 1010.21 1010.32 1010.31 1010.34 1010.41 1010.48 1010.57 1010.83 1011.06 1011.28 1011.27 1011.50 1011.78
1012.28 1012.63 1012.93 1013.14 1013.46 1013.83 1014.45 1014.90 1015.52 1015.95 1015.91 1015.80 1015.17 1013.13 1011.48 1010.25 1009.28 1008.86 1008.46 1008.35 1008.22 1008.23 1008.02 1007.91 1007.77 1007.29 1007.11 1007.13 1007.02 1007.13 1007.21 1006.59 1006.38 1006.36 1007.02 1008.25 1009.50 1010.06 1010.34 1010.43 1010.54 1010.69 1010.81 1010.96 1011.01 1011.03 1011.14 1010.98 1011.01 1011.28 1011.50 1011.72 1012.07 1012.29
1011.14 1012.11 1012.24 1012.53 1013.17 1013.71 1014.65 1015.42 1016.11 1016.25 1015.94 1015.25 1013.53 1011.26 1009.87 1009.49 1008.90 1008.56 1008.52 1008.18 1008.17 1008.04 1007.67 1007.28 1006.90 1006.75 1006.52 1006.34 1006.58 1006.33 1006.16 1006.14 1006.35 1006.92 1007.83 1009.11 1009.93 1010.37 1010.63 1010.76 1011.00 1011.37 1011.52 1011.79 1011.61 1011.53 1011.61 1011.48 1011.36 1011.60 1011.93 1012.39 1012.76 1012.80
1011.02 1010.74 1011.27 1012.14 1013.00 1013.95 1014.78 1015.58 1015.93 1015.94 1015.33 1013.80 1011.51 1010.50 1010.03 1009.44 1008.75 1008.08 1007.91 1007.64 1007.89 1007.65 1006.67 1006.29 1006.33 1006.23 1006.62 1006.12 1006.08 1006.34 1006.12 1006.39 1007.13 1007.85 1008.62 1009.48 1010.21 1010.60 1010.80 1010.96 1011.24 1011.45 1011.61 1011.72 1011.74 1011.72 1011.66 1011.94 1012.08 1012.16 1012.52 1013.00 1013.27 1013.24
1010.08 1010.58 1011.23 1012.07 1013.08 1014.31 1015.07 1015.56 1015.45 1015.49 1013.94 1012.20 1010.74 1009.75 1009.53 1009.13 1008.73 1008.02 1007.80 1007.76 1007.54 1006.68 1006.38 1005.88 1006.48 1006.41 1006.22 1006.07 1006.08 1006.82 1007.39 1007.88 1007.96 1008.54 1009.24 1010.09 1010.59 1010.86 1011.01 1011.17 1011.41 1011.62 1011.72 1011.73 1011.74 1011.63 1011.74 1011.83 1011.95 1012.31 1012.88 1013.36 1013.58 1013.52
1008.41 1009.45 1011.01 1012.21 1012.77 1013.67 1014.49 1015.12 1015.33 1013.73 1012.04 1010.66 1010.35 1009.89 1009.65 1008.94 1008.35 1008.09 1007.49 1007.47 1007.05 1006.60 1006.34 1006.04 1006.35 1006.40 1006.59 1006.97 1006.92 1007.52 1008.03 1008.22 1008.74 1009.26 1009.91 1010.53 1010.73 1010.92 1011.14 1011.33 1011.55 1011.63 1011.68 1011.67 1011.77 1011.92 1011.60 1011.63 1011.61 1012.09 1012.50 1012.86 1013.23 1013.11
1009.33 1010.47 1011.66 1012.35 1012.65 1013.31 1013.87 1014.25 1014.34 1012.78 1010.74 1010.34 1010.39 1010.18 1009.45 1008.67 1008.19 1007.32 1007.07 1006.91 1006.42 1005.95 1006.00 1006.30 1006.66 1007.26 1007.24 1007.88 1007.94 1008.24 1008.52 1008.88 1009.06 1009.27 1009.69 1010.17 1010.57 1010.95 1011.06 1011.20 1010.99 1011.45 1011.46 1011.62 1011.77 1012.41 1011.74 1011.42 1011.45 1012.11 1012.01 1012.38 1012.50 1012.57
1011.33 1012.15 1012.61 1012.69 1013.05 1013.25 1012.91 1012.15 1012.02 1011.32 1010.47 1010.04 1009.96 1009.60 1008.75 1008.32 1007.11 1006.58 1006.48 1006.26 1006.15 1006.31 1006.61 1007.22 1007.72 1008.54 1008.90 1009.04 1009.04 1009.09 1009.43 1009.17 1009.07 1009.12 1009.24 1009.62 1010.18 1010.45 1010.55 1010.93 1011.18 1011.03 1010.91 1011.13 1011.75 1011.62 1011.62 1011.39 1011.45 1011.59 1011.61 1011.72 1012.43 1012.49
1012.02 1012.47 1013.07 1013.40 1013.24 1012.70 1011.84 1010.92 1010.66 1010.52 1010.24 1009.49 1009.36 1008.86 1007.83 1006.95 1006.79 1006.92 1006.57 1006.40 1007.04 1007.62 1007.71 1008.06 1008.58 1009.06 1009.41 1009.61 1009.88 1009.94 1010.24 1010.32 1010.36 1010.31 1010.49 1010.45 1010.12 1010.14 1010.20 1010.38 1010.58 1010.58 1010.61 1010.71 1011.21 1011.43 1011.45 1011.52 1011.56 1011.36 1011.35 1011.61 1012.16 1011.77
1012.38 1012.73 1012.84 1012.58 1011.68 1010.64 1010.81 1010.23 1009.49 1009.07 1008.38 1007.66 1007.07 1006.96 1007.23 1007.19 1007.37 1007.23 1007.15 1007.58 1008.24 1009.09 1008.85 1009.10 1009.58 1009.61 1009.83 1010.33 1010.54 1010.67 1010.70 1010.51 1009.98 1009.99 1010.17 1010.03 1010.10 1010.30 1010.27 1010.29 1010.37 1010.44 1010.54 1010.49 1010.93 1011.28 1011.50 1011.66 1011.60 1011.20 1011.23 1011.55 1011.44 1011.41
1012.54 1012.34 1011.35 1010.91 1010.66 1010.69 1010.31 1009.64 1008.81 1007.67 1007.24 1006.98 1007.12 1007.42 1007.85 1007.75 1007.58 1007.28 1007.66 1008.13 1008.95 1009.37 1009.49 1009.88 1009.61 1009.83 1010.11 1010.45 1010.13 1010.17 1010.41 1010.42 1010.13 1010.08 1010.17 1010.01 1009.83 1010.21 1010.55 1010.23 1010.19 1010.40 1010.19 1010.18 1010.56 1011.09 1011.28 1011.05 1011.25 1011.34 1011.12 1011.08 1011.67 1011.71
1011.81 1011.54 1010.98 1010.68 1010.36 1010.04 1009.27 1008.39 1007.66 1007.35 1007.61 1007.61 1007.58 1007.92 1008.14 1008.03 1007.81 1008.08 1008.45 1008.85 1009.46 1009.55 1009.71 1009.65 1009.47 1009.51 1009.32 1009.64 1009.83 1010.18 1010.73 1010.29 1009.88 1009.71 1009.99 1010.08 1010.12 1010.24 1010.44 1010.32 1010.48 1009.98 1010.10 1010.33 1010.65 1010.77 1010.66 1010.61 1010.84 1010.66 1010.46 1010.46 1010.38 1010.51
1010.26 1010.28 1010.14 1009.59 1009.35 1008.53 1008.42 1008.01 1008.02 1007.98 1007.84 1007.92 1008.31 1008.53 1008.37 1008.06 1008.37 1008.67 1008.90 1009.37 1009.65 1009.75 1009.65 1009.40 1009.50 1009.54 1009.69 1009.70 1009.64 1009.67 1010.02 1010.21 1010.19 1009.62 1009.84 1009.80 1009.93 1009.94 1009.85 1009.79 1009.68 1010.04 1010.26 1010.29 1010.27 1010.27 1010.27 1010.17 1010.06 1010.12 1009.98 1010.16 1010.54 1010.58
1009.74 1009.62 1009.78 1009.88 1009.35 1008.88 1008.74 1008.70 1008.31 1007.99 1007.92 1008.07 1008.29 1008.29 1008.19 1008.42 1008.74 1009.40 1009.78 1010.01 1009.98 1010.13 1010.19 1010.04 1009.93 1009.68 1009.65 1009.61 1009.83 1010.02 1010.11 1010.25 1010.42 1009.86 1009.80 1009.75 1009.82 1009.92 1009.65 1009.46 1009.67 1009.62 1009.74 1009.91 1009.82 1009.80 1009.73 1009.66 1009.75 1009.90 1009.96 1009.74 1009.64 1009.53
1010.20 1009.77 1009.23 1009.12 1008.76 1008.39 1008.39 1008.37 1008.40 1008.48 1008.51 1008.80 1008.47 1008.41 1008.56 1008.80 1009.49 1010.05 1010.30 1010.51 1010.49 1010.46 1010.30 1010.28 1010.39 1010.20 1010.03 1010.00 1009.86 1010.00 1010.01 1010.12 1010.21 1010.14 1009.76 1009.79 1009.76 1009.64 1009.69 1009.46 1009.51 1009.91 1009.89 1009.42 1009.38 1009.33 1009.39 1009.44 1009.55 1009.54 1009.41 1009.20 1008.88 1008.84
1010.28 1009.95 1009.19 1008.92 1008.83 1009.03 1009.18 1008.99 1009.09 1009.50 1009.78 1008.86 1008.80 1009.09 1009.43 1009.89 1010.17 1010.39 1010.56 1010.56 1010.62 1010.41 1010.07 1009.84 1009.70 1010.07 1009.87 1010.00 1010.09 1009.99 1009.95 1009.65 1009.71 1009.91 1009.49 1009.12 1009.28 1009.66 1009.10 1009.14 1009.06 1008.98 1009.05 1009.09 1009.36 1009.69 1009.38 1009.14 1009.31 1009.37 1008.94 1008.61 1008.37 1008.25
1010.50 1010.15 1009.60 1009.75 1009.62 1009.86 1010.41 1010.16 1010.34 1010.34 1010.24 1010.07 1009.94 1010.09 1010.10 1010.37 1010.81 1011.01 1010.92 1010.89 1010.65 1010.33 1010.15 1010.25 1010.30 1010.22 1009.97 1009.84 1009.99 1009.80 1009.76 1010.24 1010.56 1010.14 1010.06 1009.83 1009.91 1010.39 1010.22 1008.96 1008.75 1008.77 1008.55 1008.50 1008.36 1008.18 1009.13 1009.33 1009.32 1009.23 1009.14 1008.65 1008.16 1007.84
1010.89 1010.14 1010.30 1010.36 1010.63 1010.96 1010.93 1010.82 1010.70 1010.43 1010.34 1010.23 1010.19 1010.05 1010.63 1011.30 1011.64 1011.89 1011.73 1011.48 1011.17 1010.97 1010.68 1010.45 1010.14 1010.14 1010.05 1010.02 1009.90 1010.14 1010.52 1010.69 1010.37 1010.06 1010.29 1010.19 1010.23 1010.10 1010.17 1009.80 1009.33 1008.90 1008.91 1008.69 1008.45 1008.29 1008.27 1008.12 1008.00 1007.88 1007.68 1007.42 1007.17 1007.21
1010.94 1010.76 1010.55 1010.68 1011.00 1011.27 1011.20 1011.31 1011.11 1010.99 1011.07 1011.08 1011.26 1011.41 1011.68 1011.50 1011.69 1012.37 1012.04 1011.88 1011.36 1011.09 1011.39 1010.87 1010.46 1010.32 1010.27 1010.40 1010.30 1010.06 1010.61 1010.16 1010.48 1010.59 1010.45 1010.31 1010.19 1009.93 1009.37 1009.71 1009.71 1009.55 1009.10 1008.52 1008.09 1007.78 1007.55 1007.48 1007.32 1007.13 1006.89 1006.59 1006.38 1006.29
1011.20 1010.90 1010.88 1011.00 1011.36 1011.94 1012.16 1012.16 1011.87 1011.55 1011.36 1011.37 1011.51 1011.41 1011.50 1011.64 1011.77 1011.73 1011.47 1011.29 1011.17 1011.11 1011.00 1010.73 1010.32 1010.12 1010.24 1010.20 1009.82 1009.69 1009.76 1009.45 1009.57 1009.95 1010.12 1010.02 1010.00 1010.05 1010.03 1009.64 1009.20 1008.95 1008.91 1008.50 1007.80 1007.47 1007.15 1006.74 1006.49 1006.36 1006.21 1006.06 1005.83 1005.58
Wind_Speed
8 9 9 9 8 9 13 15 16 15 14 13 11 9 6 3 0 5 3 3 6 6 10 9 8 8 10 4 5 9 6 4 3 1 4 2 3 1 6 3 4 5 4 5 5 8 8 3 4 5 6 2 6 7
6 7 8 7 6 7 12 15 16 15 14 13 11 9 6 3 1 4 3 1 2 6 8 13 17 19 17 15 8 3 5 5 6 4 4 2 5 4 5 4 3 4 5 5 6 6 6 7 9 6 5 6 8 8
5 5 7 6 6 6 12 14 15 15 14 13 12 9 6 3 2 3 4 4 5 6 10 9 5 3 6 11 9 5 2 5 2 5 4 2 4 4 5 3 2 4 0 2 5 6 7 7 7 6 7 8 7 8
5 7 5 7 5 4 12 14 16 16 15 14 13 10 6 4 2 4 3 3 4 5 6 2 1 4 1 6 10 8 7 3 4 4 3 3 3 1 1 4 5 6 5 4 10 8 8 6 6 5 6 5 6 6
5 5 6 5 5 4 9 14 15 16 16 15 14 12 6 1 1 6 6 4 5 6 7 8 13 1 4 6 7 5 5 5 4 5 4 1 1 3 0 4 7 1 5 2 5 6 6 8 6 4 5 6 7 8
3 5 6 7 6 3 4 13 16 16 17 16 15 12 7 1 4 3 3 3 4 4 5 5 4 3 4 5 5 3 1 3 5 4 0 3 1 5 5 2 5 6 7 6 5 6 9 6 5 5 4 7 8 8
2 3 5 5 7 6 4 9 15 17 17 16 15 11 8 4 0 4 3 3 2 3 5 6 4 6 3 4 4 4 3 1 4 0 2 1 3 4 3 3 5 5 7 7 7 7 7 3 4 4 5 5 5 6
3 3 4 5 6 6 7 6 13 16 17 18 15 10 8 3 5 7 3 10 5 5 5 6 3 5 6 6 4 1 3 3 2 1 3 4 4 3 2 6 4 4 3 5 5 2 4 3 2 1 1 2 2 5
2 3 5 6 7 7 5 6 13 18 19 18 13 9 3 2 1 1 6 7 6 4 6 4 5 5 6 3 1 4 3 4 2 3 2 4 4 4 7 4 3 3 0 3 1 1 4 4 0 1 1 2 1 4
3 3 4 6 8 7 5 8 17 22 22 17 4 3 2 3 2 7 4 4 5 6 5 6 5 4 7 6 5 3 3 2 5 3 2 5 4 5 5 5 3 2 1 2 4 4 2 3 1 0 0 2 2 4
5 5 4 5 7 6 5 21 26 25 13 3 3 2 2 4 2 4 4 5 5 6 7 6 8 3 3 7 6 2 3 3 4 6 4 4 5 7 6 5 4 4 3 3 1 1 1 1 1 2 3 3 3 4
7 5 5 6 5 5 22 27 27 7 5 5 5 3 5 4 5 5 6 6 7 7 7 6 6 5 5 3 4 4 3 3 2 5 4 4 7 8 7 5 4 3 2 4 2 2 2 3 3 3 5 4 5 2
8 7 7 7 5 5 26 28 12 15 12 3 2 4 5 5 6 8 12 8 6 5 6 6 7 5 4 4 1 4 6 3 4 5 4 4 8 7 5 4 4 2 2 3 3 2 3 3 2 2 4 4 3 4
10 10 10 8 7 9 26 21 21 8 4 3 6 5 8 7 8 7 9 9 3 1 7 8 5 4 2 4 2 5 3 4 4 4 5 6 8 7 5 4 5 3 2 2 2 2 3 3 5 4 4 3 3 5
12 11 12 10 10 11 24 23 16 1 2 4 6 7 10 9 4 6 6 2 2 4 8 5 3 4 4 4 3 3 5 5 3 1 3 7 9 7 6 5 5 4 3 3 3 2 2 0 2 4 5 4 5 6
15 13 10 12 15 17 23 14 3 1 3 4 7 7 5 6 8 7 6 7 4 6 7 5 4 5 5 2 6 6 5 4 4 4 6 8 8 7 6 5 4 3 3 2 2 1 2 4 3 5 5 6 5 6
17 6 18 18 15 24 20 4 2 4 4 6 8 7 6 6 5 3 5 7 5 8 8 6 7 5 2 5 4 2 3 5 5 6 6 7 9 8 6 5 5 4 1 3 4 4 4 3 4 5 6 6 6 5
6 10 18 21 18 16 2 1 2 3 8 9 5 3 3 3 4 5 5 5 7 7 6 4 3 6 4 4 3 5 4 4 4 6 6 7 7 6 5 5 5 2 4 5 5 5 6 6 5 4 7 7 5 4
14 17 28 29 11 5 4 3 2 5 9 3 4 1 3 4 5 4 4 8 4 2 6 3 3 3 3 1 5 5 5 5 6 6 7 6 6 5 5 5 4 3 4 3 4 4 4 5 2 5 6 6 4 4
29 33 27 18 6 3 4 3 3 5 6 3 2 3 3 2 3 6 7 6 7 5 3 2 3 4 3 5 4 5 5 5 6 6 5 5 5 6 6 6 4 1 4 5 5 1 5 5 4 4 5 6 5 6
19 14 13 4 2 2 4 4 3 3 3 1 2 2 1 4 6 7 5 4 4 2 4 5 6 6 6 5 5 5 5 2 1 2 2 5 5 6 5 6 5 5 5 3 4 4 4 3 2 5 6 5 5 7
4 8 3 3 2 6 6 3 3 4 2 1 2 4 6 8 8 5 1 6 5 6 5 6 6 6 6 5 5 3 5 1 1 2 3 2 5 5 5 5 5 5 5 3 4 5 4 4 4 4 3 7 7 6
7 2 1 5 4 2 3 3 1 5 8 6 3 5 5 5 4 2 5 5 5 3 5 6 6 5 7 6 5 3 2 3 3 2 2 4 2 2 3 4 4 5 5 5 3 3 4 1 4 4 5 4 4 4
3 4 4 1 2 4 2 3 3 1 4 5 5 6 4 4 1 6 8 5 5 4 5 7 6 6 5 5 4 2 2 3 4 3 3 5 5 1 3 4 4 5 3 4 5 4 5 6 5 6 5 5 8 7
3 2 1 1 1 4 5 2 4 5 6 7 7 5 3 1 4 4 3 4 4 4 5 4 2 1 3 3 2 1 2 4 3 2 3 4 2 3 2 0 2 1 3 3 4 6 6 6 6 7 6 6 6 7
3 4 3 2 2 4 6 5 6 6 6 5 4 3 1 3 4 3 3 3 3 3 2 4 2 1 2 3 3 0 3 2 1 1 4 4 4 3 5 5 5 5 3 3 6 7 7 9 8 7 7 7 8 8
5 7 4 2 2 3 5 4 3 5 6 5 4 3 2 3 3 4 4 4 3 4 3 3 3 4 4 3 1 2 3 3 1 3 3 3 4 1 2 3 2 2 8 8 7 7 7 7 6 6 9 8 7 8
5 6 7 5 6 4 7 6 5 6 5 2 1 4 3 4 4 3 3 2 2 1 2 2 2 3 4 3 1 2 5 4 5 6 4 4 5 5 5 5 4 5 7 6 6 8 8 9 8 10 9 10 9 10
5 3 3 9 7 6 6 5 5 5 4 3 5 5 4 4 4 3 2 2 2 3 4 3 1 3 3 1 2 3 4 5 2 6 6 3 4 3 4 4 5 6 6 8 11 11 13 10 9 9 10 10 9 8
5 4 4 7 7 6 5 5 6 4 5 4 2 5 5 5 5 4 4 4 5 4 4 4 3 4 4 3 1 3 4 1 3 4 4 4 5 3 7 8 4 6 6 6 7 8 10 9 11 11 11 11 11 11
2 2 5 5 6 5 5 3 3 3 3 4 3 5 6 4 2 4 5 5 2 3 2 2 1 1 1 3 3 5 4 3 6 3 5 6 5 5 4 7 9 5 5 7 7 8 8 8 10 13 15 16 17 14
4 4 4 7 6 5 4 4 4 6 7 9 7 5 2 2 6 2 3 3 4 4 4 3 4 5 5 5 4 4 3 4 4 3 7 9 9 11 7 3 6 8 10 11 10 10 11 11 9 11 13 17 17 18
6 6 7 6 4 3 3 1 2 3 3 6 6 4 6 4 3 2 2 2 4 4 4 3 4 4 5 6 6 7 6 6 6 10 12 12 11 10 8 7 6 6 11 11 11 12 15 18 14 14 14 16 17 18
Wind_Direction
316 314 311 303 284 235 193 188 183 181 185 191 195 204 206 211 142 290 316 257 284 286 292 274 290 302 328 356 348 353 272 181 203 169 296 125 249 134 273 23 300 259 249 189 241 243 212 24 141 279 33 58 20 19
323 330 323 322 297 227 192 181 179 178 180 190 191 198 201 196 145 284 270 252 247 261 302 311 280 275 267 274 296 279 320 272 349 284 196 269 214 189 320 227 176 228 342 5 339 46 79 62 72 72 25 29 28 23
337 323 326 333 331 222 186 178 178 179 183 187 191 192 192 187 168 294 309 329 243 268 271 238 247 132 214 231 228 285 147 341 302 329 330 357 260 296 195 261 205 127 93 115 201 107 97 91 89 70 53 40 30 31
319 334 341 326 327 252 193 183 182 183 183 185 187 183 180 187 201 258 296 333 284 288 279 98 169 279 228 211 219 248 298 247 276 279 299 297 275 258 61 56 287 31 175 111 96 116 118 95 69 51 58 46 29 21
292 327 334 328 322 320 206 190 187 186 183 183 180 179 179 152 252 283 265 253 271 296 328 313 307 198 234 198 219 215 227 277 267 233 224 280 326 248 37 274 119 231 118 150 76 84 65 86 88 68 55 33 13 352
290 327 331 342 319 304 243 196 189 184 183 177 174 171 173 202 351 280 257 119 232 240 276 279 45 194 166 188 195 190 268 268 259 277 106 133 86 285 217 144 72 90 81 28 106 90 91 88 67 50 24 22 9 356
301 304 324 330 334 310 278 204 190 183 177 168 157 163 168 168 236 273 341 38 197 246 256 275 215 147 196 186 189 213 202 242 286 210 216 263 153 255 222 173 129 109 101 92 108 141 127 103 66 15 12 16 16 31
269 302 303 325 320 317 288 222 187 174 162 151 149 162 171 187 272 258 134 204 200 268 260 270 244 199 188 194 199 208 215 207 163 346 196 237 160 239 229 109 121 101 119 119 104 86 86 111 278 318 318 329 68 53
268 303 312 308 313 326 286 222 173 157 145 137 138 146 145 199 194 359 59 140 206 292 301 251 265 176 171 165 104 173 256 208 97 224 146 241 181 223 86 127 99 64 250 112 5 210 196 225 308 60 181 188 22 33
265 281 297 295 304 320 299 178 147 131 125 128 141 181 186 196 130 180 187 205 185 199 224 260 281 216 210 176 172 184 210 177 199 100 155 245 122 89 117 95 84 71 160 205 238 155 170 192 64 62 357 59 69 30
249 261 273 276 304 316 171 139 130 122 120 171 148 161 103 153 175 233 222 222 183 218 207 236 254 219 190 199 164 249 194 171 224 128 254 187 172 147 148 120 100 99 123 131 130 83 26 4 20 166 145 117 70 26
238 244 264 264 291 291 146 141 142 145 159 145 123 145 178 169 208 226 209 201 216 229 165 205 200 245 133 265 208 178 218 198 212 141 233 225 95 132 159 135 122 112 116 100 62 84 113 121 97 111 115 105 102 87
235 237 237 238 253 185 154 155 156 127 136 90 66 189 189 175 217 221 200 191 200 184 175 180 173 172 159 229 169 199 208 187 135 209 220 49 129 152 156 174 159 133 126 116 117 121 133 131 116 150 122 94 75 64
230 220 219 226 205 187 166 157 149 151 83 164 168 185 220 189 223 206 228 196 177 211 172 192 149 190 137 180 178 205 64 192 220 229 198 134 160 150 162 157 183 149 153 132 135 156 134 129 126 120 96 86 63 38
221 210 204 209 192 183 165 155 158 60 150 178 215 221 210 231 237 217 245 283 202 192 176 159 143 209 153 159 207 125 183 219 228 237 103 127 153 160 164 152 149 141 121 93 30 30 36 51 157 120 105 97 69 53
201 182 204 184 180 171 163 140 111 244 161 241 235 243 222 226 233 221 214 226 180 190 194 210 166 193 186 204 194 199 202 212 147 133 114 138 157 165 165 161 122 143 103 63 284 206 237 246 222 140 132 98 79 60
180 203 173 167 157 148 140 102 125 196 226 227 223 228 268 284 258 255 194 223 164 194 193 180 190 167 115 207 195 235 228 90 118 127 138 141 162 163 149 146 162 173 221 309 286 240 227 196 162 143 127 115 98 84
196 192 169 152 143 127 71 163 103 232 231 235 238 212 225 264 274 234 205 176 185 205 198 167 131 194 193 189 166 129 127 112 108 133 138 148 151 147 159 178 178 223 292 271 248 234 198 194 183 155 137 141 143 159
168 155 151 146 139 111 145 149 202 246 221 218 214 299 268 265 244 293 210 170 222 226 151 160 127 171 138 99 114 121 142 149 143 152 138 155 160 166 186 191 209 269 293 262 240 255 203 200 178 179 159 166 178 204
125 128 134 144 148 130 132 198 190 255 213 132 130 223 259 277 201 175 156 168 179 171 103 97 73 69 77 93 83 106 115 138 153 159 161 172 192 201 209 220 227 238 251 238 226 229 211 200 202 185 188 169 185 191
104 117 112 113 61 243 229 179 203 255 113 125 38 336 215 200 161 137 120 171 95 49 99 86 94 87 71 79 75 93 99 108 122 304 159 192 187 211 191 208 218 252 266 201 220 226 243 215 231 186 178 179 166 234
74 85 107 64 241 214 236 175 213 128 188 118 154 219 157 110 94 54 16 92 81 66 73 107 103 126 119 99 94 32 82 92 34 136 214 193 206 210 219 224 237 250 247 241 220 215 212 209 182 185 200 158 208 186
80 70 193 216 246 3 71 331 246 198 183 148 128 76 65 77 58 228 84 69 86 61 85 96 98 70 93 116 131 142 179 284 269 271 201 243 216 236 236 224 238 240 238 243 189 176 189 120 172 219 144 184 197 187
120 204 241 88 354 76 325 293 262 350 63 68 66 78 64 60 97 96 95 93 97 116 127 142 153 138 146 177 207 150 222 272 277 243 252 245 231 134 270 257 224 226 246 204 166 172 183 185 141 197 202 193 179 221
197 37 236 28 169 203 206 104 66 66 72 76 83 83 76 311 92 87 103 112 141 152 138 148 126 37 40 88 93 112 212 268 282 275 176 232 174 200 192 308 222 108 158 143 149 166 179 173 192 225 226 233 251 248
90 65 25 35 56 1 25 63 58 70 79 70 68 84 189 101 75 96 87 62 91 101 68 57 38 50 9 4 328 351 120 176 164 207 135 197 163 207 148 178 148 134 157 167 178 185 202 207 213 226 240 236 222 257
45 47 68 61 58 102 96 79 85 80 76 87 92 100 102 81 86 81 103 63 58 63 49 37 357 338 351 345 71 148 165 167 198 32 100 138 157 253 249 189 221 195 179 208 223 236 247 243 244 239 246 250 261 240
31 23 61 59 82 74 84 70 62 49 62 32 217 50 57 41 66 64 76 91 41 28 356 2 332 330 328 332 295 207 191 194 202 232 217 214 229 237 246 268 285 69 301 290 262 246 247 255 253 251 253 264 282 271
50 27 63 67 65 60 35 43 61 52 5 342 70 64 78 64 73 95 71 6 318 281 273 272 174 279 270 212 253 244 245 243 230 253 236 240 145 8 305 250 258 243 237 243 215 236 265 263 265 273 276 276 276 270
41 344 69 47 47 58 49 27 65 49 43 42 91 138 132 105 53 22 353 355 331 335 348 345 334 306 306 297 219 231 189 125 298 283 319 348 344 317 268 279 304 289 270 264 271 251 203 239 254 256 255 257 259 257
340 40 69 68 73 60 56 67 108 103 89 86 41 63 63 73 70 48 4 356 312 285 329 348 31 54 358 349 10 29 17 324 251 302 336 331 298 258 296 326 309 287 275 266 266 270 274 262 256 257 257 257 257 251
31 47 105 99 102 95 55 38 48 71 67 63 46 42 29 76 79 8 310 355 18 50 34 33 53 37 33 7 336 314 273 295 312 298 321 337 311 309 309 220 261 316 313 294 281 278 271 268 275 280 280 275 267 262
91 88 95 103 83 53 1 67 19 93 84 92 103 106 99 123 111 70 5 344 357 13 351 345 319 330 323 298 315 309 266 287 258 219 238 242 256 264 279 273 254 230 249 264 281 281 274 270 268 274 278 276 273 271